Warning: Javascript must be enabled to use all the features on this page!


Page Loading - Please Wait...

* We've detected you're using a mobile device. Find our Next Generation Station Page here.
Click to hideNews Bulletins

Peak Streamflow for the Nation

USGS 13174500 OWYHEE RV NR GOLD CK, NV

Elko County, Nevada
Hydrologic Unit Code 17050104
Latitude  41°41'20", Longitude 115°50'38" NAD27
Drainage area 209  square miles
Gage datum 6,118.75 feet above NGVD29
Output formats
Table
Graph
Tab-separated file
peakfq (watstore) format
Reselect output format
Water
Year
Date Gage
Height
(feet)
Stream-
flow
(cfs)
1916 1916-04-11 7.70 9702
1917 1917-05-14 8.50 1,3802
1918 1918-04-11 4.06 260
1919 1919-04-11   4141
1920 1920-04-30 6.00 623
1921 1921-04-22 6.86 828
1922 1922-05-05 10.11 1,810
1923 1923-04-17 3.91 282
1924 1924-04-10 5.82 670
1925 1925-04-12 6.73 860
1937 1937-04-15 3.806 267
1938 1938-04-19 4.92 5536
1939 1939-03-23 5.44 7056
1940 1940-05-30 3.24 1676
1941 1941-06-24 2.84 1116
1942 1942-04-18 4.23 3356
1943 1943-04-05 6.62 9806
1944 1944-07-04 3.13 1426
1945 1945-05-06 5.09 5726
1946 1946-04-20 4.76 5006
1947 1947-06-25 3.14 1446
1948 1948-06-25 3.28 1726
1949 1949-06-30 3.47 2026
1950 1950-04-29 3.61 2436
1951 1951-04-19 4.12 3536
1952 1952-04-29 6.70 1,2106
1953 1953-06-01 4.60 4646
1954 1954-05-15 3.34 1826
1955 1955-07-07 3.10 1346
1956 1956-06-28 3.10 1366
1957 1957-05-20 4.152 3521,6
1958 1958-04-23 4.92 5526
1959 1959-05-05   1111,6
1960 1960-06-17   1201,6
1961 1961-06-17   1091,6
1962 1962-04-20 3.95 3186
1963 1963-06-15 3.27 1886
1964 1964-07-10 4.50 4616
1965 1965-05-24 3.07 1566
1966 1966-05-21 3.12 1451,6
1967 1967-07-28 3.04 1341,6
1968 1968-05-13 3.276 88.06
1969 1969-04-29 5.33 4176
1970 1970-08-12 3.62 1446
1971 1971-05-12 4.31 2626
1972 1972-04-08 2.986 3526
1973 1973-05-06 2.61 2106
1974 1974-04-21 3.45 5656
1975 1975-05-20 4.35 9456
1976 1976-06-22 2.38 1946
1977 1977-05-08 2.26 1776
1978 1978-06-29 2.43 2206
1979 1979-07-20 2.69 2826
1980 1980-06-05 2.66 2526
1981 1981-09-30 2.69 2446
1982 1982-05-19 2.63 2406
1983 1983-04-25 5.455 1,7002,6
1984 1984-05-14 5.20 1,5906
1985 1985-06-23 2.29 2976
1986 1986-04-15 2.42 3576
1987 1987-05-12 1.89 1536
1988 1988-07-13 1.83 1356
1989 1989-06-15 1.96 1696
1990 1990-07-16 1.99 1546
1991 1991-07-08 1.82 1226
1992 1992-06-05 1.49 87.06
1993 1993-09-30 1.73 1096
1994 1994-07-04 1.86 1406
1995 1995-08-10 1.59 1006
1996 1996-05-19 1.95 1566
1997 1997-05-02 2.82 3346
1998 1998-05-17 2.63 2646
1999 1999-06-04 2.12 1636
2000 2000-06-28 2.21 1756
2001 2001-06-02   2001,6
2002 2002-06-18 2.26 1666
2003 2003-06-18 2.14 1516
2004 2004-06-20 1.93 1196
2005 2005-09-02 1.85 1146
2006 2006-04-25 4.31 9976
2007 2007-06-13 2.17 1686
2008 2008-07-17 2.06 1496
2009 2009-08-02 1.94 1286
2010 2010-07-20 2.06 1426
2011 2011-05-15 3.23 4166
2012 2012-06-09 2.20 1666
2013 2013-05-10 1.74 86.06
2014 2014-06-26 1.73 81.06
2015 2015-06-17 1.46 65.06
2016 2016-07-06 1.64 78.06
2017 2017-04-27 3.36 4956
2018 2018-06-09 1.79 1016
2019 2019-05-31 3.33 4316
2020 2020-06-22 2.57 2346
?
  Peak Gage-Height Qualification Codes.
?
  Peak Streamflow Qualification Codes.